Waarnemingen

Advertentie
Mijn weer
Nordseeboje II, Duitsland (10008): temperatuur & dauwpunt: 20.03.2017 00:00:00 - 26.03.2017 00:00:00 (CET)Nordseeboje II, Duitsland (10008): water temperatuur: 20.03.2017 00:00:00 - 26.03.2017 00:00:00 (CET)Nordseeboje II, Duitsland (10008): windsnelheid: 20.03.2017 00:00:00 - 26.03.2017 00:00:00 (CET)Nordseeboje II, Duitsland (10008): windrichting: 20.03.2017 00:00:00 - 26.03.2017 00:00:00 (CET)Nordseeboje II, Duitsland (10008): luchtdruk: 20.03.2017 00:00:00 - 26.03.2017 00:00:00 (CET)Nordseeboje II, Duitsland (10008): zicht: 20.03.2017 00:00:00 - 26.03.2017 00:00:00 (CET)
Datum & Tijd tt [°C] td [°C] tw [°C] ff [km/u] ff [kn] dd ppp [hPa] vv [km]
26.03.2017 00:00:00 6,4 5,5 6,1 14 8 NW 1028,4 -
25.03.2017 23:00:00 6,4 5,4 6,2 14 8 NNW 1029,1 -
25.03.2017 22:00:00 6,5 5,4 6,2 11 6 NNW 1029,1 -
25.03.2017 21:00:00 6,4 5,6 6,0 18 10 NNW 1029,4 -
25.03.2017 20:00:00 6,4 5,5 6,0 14 8 NW 1028,9 -
25.03.2017 19:00:00 6,4 5,5 6,1 14 8 NW 1029,1 -
25.03.2017 18:00:00 - - 6,1 14 8 NNW 1029,1 -
25.03.2017 17:00:00 6,7 5,3 6,3 14 8 NNW 1029,5 -
25.03.2017 16:00:00 6,5 5,2 6,3 14 8 NW 1030,0 -
25.03.2017 15:00:00 6,5 5,0 6,2 18 10 NNW 1031,0 -
25.03.2017 14:00:00 6,5 4,9 - 14 8 WNW 1031,8 -
25.03.2017 13:00:00 6,4 4,8 - 18 10 NW 1032,6 -
25.03.2017 12:00:00 6,3 4,7 5,9 18 10 NW 1032,8 -
25.03.2017 11:00:00 6,3 4,6 5,9 18 10 NW 1032,9 -
25.03.2017 10:00:00 6,2 4,4 6,1 18 10 NW 1033,0 -
25.03.2017 09:00:00 6,3 4,0 5,9 18 10 NW 1032,8 -
25.03.2017 08:00:00 6,4 3,7 6,0 18 10 NW 1033,2 -
25.03.2017 07:00:00 6,2 3,6 5,7 22 12 WNW 1032,8 -
25.03.2017 06:00:00 6,1 3,6 5,9 18 10 WNW 1032,8 -
25.03.2017 05:00:00 6,0 3,6 5,9 18 10 WNW 1033,1 -
25.03.2017 04:00:00 - 3,4 6,1 111 60 N 1033,4 0,4
25.03.2017 03:00:00 - - - - - - - -
25.03.2017 02:00:00 6,1 3,5 6,1 14 8 NW 1034,6 -
25.03.2017 01:00:00 6,1 3,5 6,1 0 0 N 1034,5 -
25.03.2017 00:00:00 6,0 3,4 5,9 14 8 WNW 1034,6 -
24.03.2017 23:00:00 5,9 3,0 5,8 11 6 WNW 1034,5 -
24.03.2017 22:00:00 5,9 2,9 5,9 11 6 WNW 1034,7 -
24.03.2017 21:00:00 5,7 3,1 5,8 11 6 W 1034,9 -
24.03.2017 20:00:00 5,5 2,9 5,7 7 4 NNW 1034,6 -
24.03.2017 19:00:00 5,4 2,8 5,8 11 6 NNW 1034,5 1,0
24.03.2017 18:00:00 5,5 2,7 5,7 7 4 NNW 1034,3 -
24.03.2017 17:00:00 5,7 2,6 5,8 7 4 N 1034,4 -
24.03.2017 16:00:00 5,8 2,7 5,8 4 2 N 1034,3 -
24.03.2017 15:00:00 5,6 2,6 5,7 7 4 N 1034,6 -
24.03.2017 14:00:00 5,4 2,5 5,8 4 2 N 1034,5 -
24.03.2017 13:00:00 5,3 2,6 5,6 11 6 NO 1034,1 -
24.03.2017 12:00:00 5,2 2,9 5,7 11 6 NO 1034,0 -
24.03.2017 11:00:00 5,1 2,8 5,8 11 6 ONO 1033,4 -
24.03.2017 10:00:00 5,1 2,8 5,7 11 6 NO 1033,3 -
24.03.2017 09:00:00 5,1 2,6 5,7 14 8 NO 1032,9 -
24.03.2017 08:00:00 5,2 2,6 5,6 14 8 NO 1032,4 -
24.03.2017 07:00:00 5,0 1,8 5,7 14 8 NO 1031,9 -
24.03.2017 06:00:00 4,9 1,2 5,6 18 10 NO 1031,1 -
24.03.2017 05:00:00 4,9 0,7 5,7 22 12 NO 1030,7 -
24.03.2017 04:00:00 5,0 1,6 5,8 18 10 NO 1030,4 -
24.03.2017 03:00:00 4,9 1,8 5,7 22 12 NO 1029,9 -
24.03.2017 02:00:00 4,9 1,8 5,8 22 12 NO 1029,7 -
24.03.2017 01:00:00 4,9 1,8 5,9 25 14 NO 1029,1 -
24.03.2017 00:00:00 5,1 1,9 5,9 25 14 NO 1029,0 -
23.03.2017 23:00:00 5,1 1,7 5,8 29 16 NO 1028,4 -
23.03.2017 22:00:00 5,2 1,5 5,8 29 16 NO 1028,1 -
23.03.2017 21:00:00 5,2 1,8 5,9 36 19 NO 1027,5 -
23.03.2017 20:00:00 5,4 1,8 5,8 36 19 NO 1026,6 -
23.03.2017 19:00:00 5,5 1,8 5,9 36 19 NO 1025,8 -
23.03.2017 18:00:00 5,6 2,8 5,9 36 19 NO 1024,9 -
23.03.2017 17:00:00 5,7 2,7 6,0 36 19 NO 1024,5 -
23.03.2017 16:00:00 - - - - - - - -
23.03.2017 15:00:00 5,7 3,7 6,0 32 18 NO 1024,3 -
23.03.2017 14:00:00 5,6 3,8 5,8 29 16 NO 1024,3 -
23.03.2017 13:00:00 5,2 3,7 5,9 29 16 NO 1024,0 -
23.03.2017 12:00:00 5,4 4,0 5,9 29 16 ONO 1023,8 -
23.03.2017 11:00:00 5,1 3,9 5,9 32 18 ONO 1023,4 -
23.03.2017 10:00:00 5,3 3,7 5,8 32 18 ONO 1022,9 -
23.03.2017 09:00:00 5,4 3,9 5,8 32 18 ONO 1022,4 -
23.03.2017 08:00:00 5,8 4,0 5,8 32 18 ONO 1022,0 -
23.03.2017 07:00:00 5,7 4,1 5,8 32 18 ONO 1021,3 -
23.03.2017 06:00:00 5,6 4,3 5,8 29 16 O 1020,7 -
23.03.2017 05:00:00 5,7 4,3 5,9 32 18 O 1020,1 -
23.03.2017 04:00:00 5,7 4,3 5,9 25 14 ONO 1019,9 -
23.03.2017 03:00:00 5,9 4,3 6,0 22 12 O 1019,8 -
23.03.2017 02:00:00 6,0 4,2 5,9 25 14 O 1019,7 -
23.03.2017 01:00:00 6,0 4,0 5,9 22 12 O 1019,3 -
23.03.2017 00:00:00 6,0 3,8 5,9 22 12 O 1019,3 -
22.03.2017 23:00:00 6,0 3,7 6,0 18 10 O 1019,0 -
22.03.2017 22:00:00 6,0 3,9 6,0 18 10 O 1018,6 0,5
22.03.2017 21:00:00 6,1 4,3 5,7 14 8 O 1018,2 -
22.03.2017 20:00:00 5,9 4,6 5,8 11 6 O 1017,8 0,5
22.03.2017 19:00:00 6,0 4,6 5,8 7 4 OZO 1017,2 -
22.03.2017 18:00:00 6,4 4,7 5,9 11 6 ZO 1016,4 -
22.03.2017 17:00:00 7,4 5,2 5,9 11 6 ZZO 1015,8 -
22.03.2017 16:00:00 7,4 5,6 5,7 11 6 Z 1015,7 -
22.03.2017 15:00:00 6,8 5,4 5,9 14 8 ZZW 1015,5 -
22.03.2017 14:00:00 6,5 5,3 6,0 14 8 ZZW 1015,1 -
22.03.2017 13:00:00 6,4 5,0 5,9 18 10 ZW 1015,0 -
22.03.2017 12:00:00 6,5 5,2 6,0 29 16 ZW 1014,5 -
22.03.2017 11:00:00 6,5 5,4 - 25 14 ZZW 1013,7 -
22.03.2017 10:00:00 6,4 5,1 5,8 25 14 ZW 1012,9 -
22.03.2017 09:00:00 6,5 4,8 5,7 7 4 ZW 1012,0 -
22.03.2017 08:00:00 - - - - - - - -
22.03.2017 07:00:00 6,2 4,3 5,7 22 12 ZW 1010,9 -
22.03.2017 06:00:00 6,2 4,2 5,8 22 12 ZW 1010,3 -
22.03.2017 05:00:00 6,2 3,8 5,7 22 12 WZW 1009,8 -
22.03.2017 04:00:00 6,4 4,8 5,8 22 12 ZZW 1011,4 -
22.03.2017 03:00:00 6,4 3,5 5,8 29 16 WZW 1009,0 -
22.03.2017 02:00:00 6,4 3,6 5,7 29 16 WZW 1008,8 -
22.03.2017 01:00:00 6,4 3,5 5,8 36 19 WZW 1008,5 -
22.03.2017 00:00:00 6,4 3,1 5,7 36 19 WZW 1008,2 -
21.03.2017 23:00:00 6,2 3,5 5,8 36 19 WZW 1007,8 -
21.03.2017 22:00:00 6,4 2,9 5,8 47 25 WZW 1007,1 -
21.03.2017 21:00:00 6,3 2,9 5,7 43 23 WZW 1006,5 -
21.03.2017 20:00:00 6,2 2,5 5,7 47 25 WZW 1005,8 -
21.03.2017 19:00:00 - - - - - - - -
21.03.2017 18:00:00 6,1 1,4 5,8 54 29 W - -
21.03.2017 17:00:00 6,1 0,6 5,8 58 31 WZW 1003,4 -
21.03.2017 16:00:00 6,1 0,1 5,9 58 31 W 1002,8 -
21.03.2017 15:00:00 5,5 1,2 5,8 50 27 W 1002,6 -
21.03.2017 14:00:00 6,1 -0,1 5,7 58 31 W 1001,9 -
21.03.2017 13:00:00 6,0 1,3 5,7 50 27 W 1001,2 -
21.03.2017 12:00:00 5,9 2,0 5,8 50 27 W 1000,5 -
21.03.2017 11:00:00 5,6 2,5 5,5 47 25 W 999,7 -
21.03.2017 10:00:00 4,9 2,7 5,8 50 27 W 999,1 -
21.03.2017 09:00:00 6,4 4,0 5,7 47 25 WZW 998,2 -
21.03.2017 08:00:00 6,4 4,6 5,7 40 21 WZW 998,3 1,1
21.03.2017 07:00:00 6,3 4,7 5,8 32 18 WZW 998,2 1,1
21.03.2017 06:00:00 6,4 4,7 5,7 32 18 WZW 998,1 -
21.03.2017 05:00:00 6,3 4,1 5,7 32 18 WZW 998,1 -
21.03.2017 04:00:00 6,5 4,1 5,9 36 19 WZW 998,1 -
21.03.2017 03:00:00 6,6 4,1 5,8 36 19 WZW 998,0 -
21.03.2017 02:00:00 6,6 4,3 5,7 36 19 WZW 998,0 -
21.03.2017 01:00:00 6,7 5,0 5,8 36 19 WZW 997,8 -
21.03.2017 00:00:00 6,5 5,6 5,8 36 19 WZW 997,5 -
20.03.2017 23:00:00 6,4 5,7 5,8 32 18 WZW 997,2 -
20.03.2017 22:00:00 6,7 6,2 5,8 36 19 W 996,7 -
20.03.2017 21:00:00 7,0 6,5 5,7 40 21 W 995,8 -
20.03.2017 20:00:00 6,8 6,7 5,7 36 19 W 995,1 -
20.03.2017 19:00:00 6,8 6,6 5,7 22 12 W 994,3 -
20.03.2017 18:00:00 6,9 6,7 5,6 25 14 W 994,1 -
20.03.2017 17:00:00 7,2 7,1 5,7 22 12 ZW 994,2 -
20.03.2017 16:00:00 7,0 6,8 5,8 32 18 ZZW 994,9 -
20.03.2017 15:00:00 7,0 6,8 5,8 36 19 ZW 996,1 -
20.03.2017 14:00:00 6,9 6,7 5,7 36 19 ZW 997,1 -
20.03.2017 13:00:00 7,0 6,7 5,8 36 19 ZW 997,9 -
20.03.2017 12:00:00 6,6 6,6 5,7 25 14 ZZW 998,7 -
20.03.2017 11:00:00 6,5 6,1 5,7 25 14 ZZW 999,2 -
20.03.2017 10:00:00 6,1 5,8 5,7 22 12 - 999,8 -
20.03.2017 09:00:00 6,0 5,7 5,8 14 8 ZZW 1000,1 -
20.03.2017 08:00:00 6,2 5,7 5,6 14 8 ZZW 1000,6 -
20.03.2017 07:00:00 6,2 5,5 5,7 14 8 ZZW 1000,9 -
20.03.2017 06:00:00 6,4 5,4 5,7 14 8 ZW 1001,0 -
20.03.2017 05:00:00 6,8 5,8 5,6 22 12 WZW 1001,2 -
20.03.2017 04:00:00 6,8 6,1 5,5 18 10 W 1000,9 -
20.03.2017 03:00:00 6,7 6,2 5,7 14 8 W 1000,8 -
20.03.2017 02:00:00 6,8 6,2 5,7 22 12 W 1001,5 -
20.03.2017 01:00:00 6,5 6,0 5,7 18 10 W 1001,2 -
20.03.2017 00:00:00 6,7 6,1 5,6 22 12 W 1000,7 -

tt = temperatuur
td = dauwpunt
tw = water temperatuur
ff = windsnelheid
dd = windrichting
ppp = luchtdruk
vv = zicht

Weerstations in de omgeving